Wind_Speed
4 3 2 4 5 6 7 8 8 10 11 11 11 11 11 11 11 11 12 11 11 11 10 11 10 10 9 8 8 8 7 7 8 7 7 6 6 7 7 7 7 6 6
5 4 3 4 6 6 7 8 9 10 11 12 12 12 11 11 12 12 12 11 10 10 10 11 9 9 9 8 8 7 7 7 7 7 7 6 6 7 7 7 7 6 6
6 5 4 5 5 6 7 8 9 10 11 12 13 12 12 12 12 12 11 11 10 10 10 10 9 10 9 9 8 7 7 7 6 6 6 6 6 6 6 6 7 6 6
7 6 6 6 7 7 8 9 10 11 12 12 13 12 12 12 12 11 10 10 10 10 9 9 10 9 9 8 7 7 7 6 6 6 6 6 6 6 6 6 6 6 6
7 7 7 7 7 8 9 10 11 12 13 13 13 12 12 12 12 11 10 11 10 10 9 9 9 9 9 8 7 7 6 6 6 6 6 6 6 5 5 5 5 5 5
8 8 8 7 7 8 9 10 12 13 13 12 12 12 12 12 11 11 11 11 10 10 10 9 8 9 8 7 7 6 6 6 6 6 6 5 5 5 5 5 5 5 4
9 9 9 9 8 9 10 10 11 12 12 12 11 11 11 11 10 10 10 10 9 9 9 9 8 8 8 7 6 6 6 5 5 6 6 5 5 5 4 4 4 4 4
10 10 9 9 9 10 11 11 11 11 11 12 11 11 11 10 10 9 10 9 10 9 9 9 7 7 7 7 6 6 5 5 5 5 5 5 4 4 4 3 3 3 3
11 10 9 10 10 11 11 11 11 11 11 12 12 12 11 10 10 9 9 9 10 9 9 8 7 7 6 6 6 5 6 5 5 5 5 5 4 4 3 3 2 2 2
12 11 10 11 11 11 12 11 11 11 11 11 11 12 11 11 10 9 10 9 9 9 9 8 7 7 6 6 6 5 6 6 5 5 5 5 4 3 3 3 2 2 2
13 12 10 11 11 11 11 10 10 10 11 11 11 11 11 11 10 10 10 9 9 8 8 8 7 6 6 6 6 6 6 6 5 5 5 5 4 3 3 3 3 3 3
13 12 12 12 11 12 11 10 9 9 10 10 10 9 10 9 10 9 9 9 9 8 8 8 7 6 5 5 5 5 5 5 6 5 5 4 3 3 4 4 4 4 4
13 13 12 12 11 11 11 10 8 9 10 10 10 9 9 9 9 8 9 8 9 8 8 7 7 6 6 6 6 5 5 5 5 5 5 5 4 4 4 4 5 5 5
13 12 12 11 12 11 11 10 10 10 10 10 9 9 9 9 8 8 8 8 8 7 7 7 7 6 7 7 6 6 5 5 5 5 5 5 4 5 4 5 5 6 6
12 11 11 11 11 11 11 11 11 10 10 10 9 9 9 9 8 8 8 8 8 7 6 6 6 5 6 7 7 7 6 5 5 5 5 5 5 5 5 5 5 6 7
11 11 11 11 11 10 10 10 10 10 10 10 9 8 8 8 8 7 8 8 7 6 5 6 5 5 6 7 7 7 6 5 5 6 6 6 6 6 6 6 6 6 7
11 11 11 10 11 10 9 9 10 9 9 9 8 8 8 8 7 7 7 7 5 5 5 6 5 4 4 6 6 6 7 7 6 6 6 7 7 7 7 7 7 7 8
10 11 11 10 10 9 9 8 8 8 8 7 7 7 7 6 6 5 6 5 5 5 5 5 4 4 5 5 5 6 6 6 6 7 6 6 7 8 9 9 9 8 8
9 9 9 9 9 9 8 7 6 6 6 6 6 6 6 6 5 4 4 4 4 4 5 5 4 5 5 5 5 5 6 6 6 7 6 7 7 8 9 9 9 9 9
7 6 7 8 7 7 7 6 6 5 5 5 6 5 5 5 5 4 3 3 3 4 4 4 4 5 5 5 5 5 6 6 7 7 7 8 8 9 9 9 10 10 10
6 4 5 5 5 5 5 5 4 4 4 4 4 4 4 4 4 4 4 3 3 4 4 4 5 5 6 6 6 7 7 7 8 8 8 8 9 9 10 11 11 11 11
5 4 3 3 3 3 3 3 3 3 4 4 3 3 3 3 4 4 4 4 4 4 5 5 6 7 7 7 8 9 9 10 10 10 10 10 11 11 11 12 12 13 13
5 4 3 2 2 1 1 1 1 1 3 3 2 2 3 4 4 4 4 4 5 5 6 6 7 7 8 9 9 10 11 11 11 12 13 13 12 12 12 12 12 13 13
6 5 4 3 2 2 1 1 1 2 2 2 3 3 4 4 4 5 5 5 6 7 7 8 8 8 9 9 9 9 10 11 11 13 13 14 14 13 14 14 13 13 14
7 6 6 4 4 4 4 3 3 4 4 4 4 4 5 6 6 7 7 8 8 8 9 9 10 10 10 11 11 11 11 11 12 13 14 15 15 15 15 15 15 15 15
8 7 7 6 5 5 5 5 5 6 5 5 5 6 7 7 8 8 9 9 9 10 11 11 11 11 11 12 12 12 13 13 14 14 14 15 16 16 16 16 16 15 16
Wind_Direction
69 88 116 141 149 147 145 148 152 150 153 157 160 155 152 154 157 160 161 156 153 151 153 156 155 157 154 150 145 143 139 141 140 140 138 136 134 126 120 119 117 114 111
67 89 112 141 145 145 150 150 146 148 149 152 155 153 149 149 153 156 156 153 150 154 156 154 153 159 155 153 152 146 145 144 145 146 143 137 131 123 118 121 123 121 118
73 94 116 130 138 147 152 151 143 140 146 149 150 152 152 151 151 154 155 152 152 157 157 154 152 153 151 155 154 145 144 146 144 139 142 138 131 126 123 123 125 124 119
77 94 118 124 132 140 145 143 139 138 142 147 147 150 152 152 151 156 160 162 159 159 156 154 154 152 149 150 151 146 146 144 145 147 140 129 127 130 129 127 128 125 119
81 97 115 125 125 133 140 140 137 138 141 144 145 148 151 151 152 157 163 162 162 162 155 154 157 154 150 147 150 151 144 142 144 145 139 131 128 130 129 130 132 130 126
85 96 109 113 119 127 133 138 136 141 143 147 151 151 153 155 160 161 164 163 165 165 161 159 158 156 154 150 149 152 146 142 146 146 141 138 133 129 127 131 132 135 127
84 92 100 106 116 126 127 131 138 143 148 150 156 157 157 157 161 164 169 169 170 170 167 168 164 165 162 154 150 150 148 149 152 153 149 148 144 138 137 135 139 141 138
79 80 97 106 116 123 128 134 137 142 148 151 153 154 155 155 157 164 169 170 169 170 167 169 173 173 169 165 159 156 159 164 165 163 159 155 153 152 153 148 145 138 141
74 78 91 106 112 116 124 130 134 138 142 144 149 152 154 155 158 160 163 171 173 170 169 173 176 178 179 179 177 173 174 173 177 175 168 163 161 167 172 174 177 166 166
72 76 86 99 105 111 117 125 135 140 142 143 148 153 155 156 159 160 162 167 172 174 175 180 182 189 189 189 192 191 186 185 188 191 180 178 185 188 197 203 206 210 207
67 74 82 95 105 111 115 121 132 138 142 147 151 154 156 158 162 161 162 167 167 175 182 187 191 192 192 195 199 200 197 193 196 196 190 198 208 212 217 228 231 230 233
67 72 78 86 99 107 110 113 123 136 143 147 148 152 151 156 164 167 168 170 175 182 185 186 190 196 198 201 207 206 202 201 206 209 210 206 221 232 239 243 243 240 239
66 70 75 82 95 102 104 105 114 134 142 143 146 148 149 155 163 167 173 179 185 193 191 189 195 199 205 204 205 208 209 214 218 227 232 224 229 239 243 250 248 247 245
65 68 71 78 90 95 96 99 106 123 137 140 143 146 153 157 163 169 177 184 190 190 189 197 205 205 208 204 209 211 218 228 229 232 240 240 242 248 251 256 257 259 254
65 70 72 78 84 90 91 95 106 118 129 137 139 144 150 157 164 172 182 179 185 191 190 195 209 213 210 204 207 214 215 219 226 233 244 253 251 248 253 259 260 262 261
62 71 76 79 83 87 93 97 105 113 125 132 139 147 150 154 162 173 177 183 187 193 194 200 211 212 210 211 211 214 219 226 234 241 248 253 248 248 251 255 257 261 260
57 64 73 78 83 87 90 92 104 112 121 128 139 149 152 154 159 168 178 185 187 189 197 204 203 202 206 207 208 218 230 240 247 255 255 249 247 247 252 254 255 257 259
54 58 65 73 82 87 90 94 103 109 114 123 131 141 153 159 168 175 182 183 185 190 195 201 207 214 219 213 213 224 236 248 256 259 257 254 253 253 254 255 257 256 260
53 58 62 69 79 83 84 88 98 108 115 124 132 139 146 155 162 165 172 180 187 196 203 204 208 219 226 224 223 233 239 248 254 261 261 261 264 265 263 260 261 262 261
43 54 61 63 72 77 81 85 94 104 114 121 129 138 151 161 167 175 186 192 198 204 208 211 219 229 238 244 245 251 253 251 255 262 265 266 268 270 268 267 268 267 266
21 34 53 55 59 66 76 88 98 108 119 127 131 140 151 169 182 193 204 211 215 221 221 224 232 241 249 254 257 259 262 260 263 266 271 271 270 272 274 273 271 269 268
1 2 33 43 39 48 66 72 78 111 131 139 147 161 176 188 201 206 212 220 228 228 236 241 244 247 252 257 259 260 266 266 266 266 270 272 271 273 276 278 277 273 272
336 344 355 5 354 1 55 61 47 116 160 170 182 191 203 210 215 216 221 230 240 244 248 252 256 253 257 262 263 266 268 265 267 271 272 274 274 275 278 282 281 277 275
309 317 325 322 304 285 288 274 262 260 229 224 224 229 230 228 231 239 243 242 248 254 258 261 263 262 264 264 266 272 271 268 269 273 275 276 276 277 279 282 282 280 275
293 298 304 302 292 271 269 275 272 270 261 247 249 249 246 240 240 245 251 251 256 262 267 269 270 268 267 269 269 273 275 276 274 273 275 277 278 278 279 280 283 282 277
288 289 291 292 279 260 258 262 268 266 260 255 262 259 251 247 248 253 256 261 261 264 269 270 268 267 270 268 269 271 274 277 277 277 276 277 278 278 278 277 278 279 279
Height
5850 5850 5849 5849 5850 5851 5851 5852 5852 5853 5855 5857 5860 5862 5864 5866 5868 5870 5873 5875 5876 5878 5879 5881 5883 5885 5886 5887 5888 5889 5890 5891 5892 5893 5894 5894 5895 5896 5897 5897 5898 5898 5899
5850 5850 5849 5850 5851 5851 5852 5853 5853 5854 5856 5858 5861 5863 5865 5868 5869 5871 5874 5876 5877 5879 5881 5882 5884 5885 5887 5888 5889 5890 5891 5892 5893 5894 5895 5895 5896 5897 5897 5898 5899 5899 5900
5851 5850 5850 5850 5851 5852 5853 5853 5854 5856 5858 5860 5862 5864 5866 5869 5871 5872 5875 5877 5878 5880 5882 5883 5885 5886 5888 5889 5890 5891 5892 5893 5894 5895 5896 5896 5897 5898 5898 5899 5900 5900 5901
5852 5851 5851 5852 5852 5852 5853 5854 5855 5857 5859 5861 5863 5865 5868 5870 5872 5874 5876 5878 5879 5881 5883 5884 5886 5887 5889 5890 5891 5892 5893 5894 5895 5896 5897 5897 5898 5899 5900 5900 5901 5901 5902
5853 5852 5853 5853 5853 5854 5854 5856 5857 5858 5860 5862 5864 5867 5869 5871 5873 5875 5877 5878 5880 5882 5884 5886 5887 5888 5890 5891 5892 5893 5894 5895 5896 5897 5898 5898 5899 5900 5900 5901 5901 5902 5902
5854 5853 5853 5854 5854 5855 5856 5857 5858 5860 5862 5864 5866 5868 5870 5872 5874 5876 5877 5879 5881 5883 5885 5887 5888 5890 5891 5892 5893 5894 5895 5896 5897 5898 5899 5899 5900 5901 5901 5902 5902 5903 5903
5855 5855 5855 5855 5855 5856 5857 5858 5860 5861 5863 5865 5867 5869 5871 5873 5875 5877 5879 5880 5882 5884 5886 5888 5889 5890 5892 5893 5894 5895 5896 5897 5898 5898 5899 5900 5900 5901 5902 5902 5903 5903 5904
5857 5856 5856 5856 5856 5857 5858 5859 5861 5863 5864 5866 5868 5870 5872 5874 5876 5878 5880 5881 5883 5885 5886 5888 5890 5891 5892 5893 5894 5896 5896 5897 5898 5899 5900 5900 5901 5902 5902 5903 5903 5904 5904
5859 5858 5858 5858 5858 5859 5860 5861 5862 5864 5865 5867 5869 5871 5873 5875 5876 5878 5880 5882 5883 5885 5887 5889 5890 5892 5893 5894 5895 5896 5897 5898 5899 5899 5900 5901 5901 5902 5902 5903 5904 5904 5905
5861 5860 5860 5859 5860 5860 5861 5862 5864 5865 5867 5868 5870 5872 5873 5875 5877 5879 5881 5883 5884 5886 5888 5889 5891 5892 5893 5894 5895 5896 5897 5898 5899 5900 5900 5901 5902 5902 5903 5903 5904 5904 5905
5864 5863 5862 5861 5862 5862 5863 5864 5865 5866 5868 5869 5871 5873 5874 5876 5878 5880 5882 5883 5885 5887 5888 5889 5891 5892 5893 5894 5895 5896 5897 5898 5899 5900 5900 5901 5902 5902 5903 5903 5904 5904 5904
5866 5865 5864 5864 5864 5864 5864 5865 5865 5866 5868 5870 5872 5873 5875 5877 5879 5880 5882 5883 5885 5887 5888 5889 5891 5892 5893 5894 5895 5896 5897 5898 5899 5900 5900 5901 5902 5902 5903 5903 5903 5904 5904
5869 5867 5866 5866 5866 5866 5866 5866 5865 5866 5868 5871 5873 5875 5876 5878 5879 5881 5882 5883 5885 5887 5888 5890 5891 5892 5893 5894 5895 5896 5897 5898 5899 5899 5900 5901 5901 5902 5902 5903 5903 5903 5903
5871 5870 5869 5868 5868 5868 5868 5867 5866 5866 5869 5872 5874 5876 5877 5879 5880 5881 5882 5883 5885 5887 5888 5890 5891 5892 5893 5894 5895 5896 5897 5897 5898 5899 5900 5900 5901 5901 5902 5902 5902 5902 5903
5873 5872 5871 5870 5870 5870 5870 5869 5869 5870 5872 5873 5875 5876 5877 5879 5880 5881 5883 5883 5885 5887 5888 5890 5890 5891 5892 5893 5894 5896 5897 5897 5898 5899 5899 5900 5900 5901 5901 5901 5901 5901 5902
5876 5874 5873 5873 5872 5872 5872 5871 5872 5873 5873 5875 5876 5877 5878 5879 5881 5882 5883 5884 5886 5887 5888 5889 5890 5891 5892 5893 5894 5895 5896 5897 5897 5898 5898 5899 5899 5899 5900 5900 5900 5900 5901
5878 5877 5876 5875 5874 5874 5874 5874 5874 5874 5875 5876 5877 5878 5879 5880 5881 5882 5883 5885 5886 5887 5888 5889 5890 5891 5892 5893 5894 5895 5895 5896 5896 5897 5897 5897 5898 5898 5899 5899 5899 5899 5899
5880 5878 5878 5877 5876 5876 5876 5876 5876 5876 5877 5877 5878 5879 5880 5881 5882 5883 5884 5885 5886 5887 5888 5889 5890 5890 5891 5892 5893 5894 5894 5895 5895 5896 5896 5896 5897 5897 5897 5897 5898 5898 5898
5881 5880 5879 5879 5878 5878 5878 5878 5878 5878 5878 5879 5879 5880 5881 5882 5882 5883 5884 5884 5885 5886 5887 5888 5889 5890 5891 5891 5892 5893 5894 5894 5895 5895 5895 5895 5895 5895 5895 5896 5896 5896 5896
5883 5882 5881 5880 5880 5879 5879 5879 5879 5879 5880 5880 5880 5881 5881 5882 5883 5884 5884 5885 5885 5886 5887 5888 5889 5889 5890 5891 5891 5892 5892 5893 5893 5893 5893 5893 5894 5893 5894 5894 5894 5894 5894
5884 5883 5882 5882 5881 5881 5880 5880 5880 5880 5881 5881 5881 5882 5882 5883 5883 5884 5884 5885 5885 5886 5886 5887 5888 5889 5889 5890 5891 5891 5891 5891 5892 5892 5892 5892 5892 5892 5892 5892 5892 5892 5891
5884 5884 5883 5882 5882 5882 5881 5881 5880 5880 5881 5881 5882 5882 5883 5883 5883 5884 5884 5885 5885 5885 5886 5886 5887 5887 5888 5889 5889 5889 5889 5890 5890 5890 5890 5890 5890 5890 5890 5890 5889 5889 5889
5885 5884 5883 5883 5882 5882 5881 5882 5881 5881 5881 5882 5882 5882 5883 5883 5883 5883 5884 5884 5885 5885 5885 5886 5886 5886 5887 5887 5887 5887 5887 5887 5887 5888 5888 5888 5887 5887 5887 5887 5886 5886 5886
5884 5883 5883 5882 5882 5882 5882 5881 5881 5881 5881 5881 5881 5882 5882 5882 5882 5883 5883 5883 5884 5884 5884 5884 5884 5884 5885 5885 5885 5885 5885 5885 5885 5885 5885 5885 5885 5884 5884 5884 5883 5883 5883
5883 5883 5882 5881 5881 5880 5880 5880 5880 5881 5881 5881 5881 5881 5881 5881 5881 5882 5882 5882 5882 5882 5882 5882 5882 5882 5883 5883 5883 5882 5882 5882 5882 5883 5882 5882 5882 5881 5881 5881 5880 5880 5879
5882 5881 5880 5880 5879 5879 5879 5878 5879 5880 5879 5879 5879 5879 5879 5879 5879 5880 5880 5880 5880 5881 5881 5880 5880 5880 5880 5880 5880 5880 5880 5880 5880 5879 5879 5879 5878 5878 5878 5877 5877 5876 5876